GFSWCAN_sfc_temp_057.txt.gz
Temp
55 56 56 56 56 56 56 55 56 56 56 56 57 57 57 57 57 54 51 51 45 40 43 47 48 43 44 43 37 44 42 44 41 36 36 36 34 40 40 40 39 40 39 42 46 43 39 59 62 52 58 64 64 64
55 55 55 55 55 55 55 55 55 55 56 56 57 57 57 57 57 56 49 52 51 43 44 51 52 54 53 52 46 47 43 43 43 38 39 40 39 42 42 33 47 36 41 36 42 39 52 60 60 64 67 65 64 63
55 55 55 55 55 55 55 55 55 55 56 56 56 57 57 57 57 56 51 49 47 43 44 48 50 58 59 58 60 43 47 49 46 49 44 43 38 45 37 40 44 50 51 42 43 51 54 56 64 59 60 59 66 66
55 55 55 55 55 55 55 55 55 55 55 56 56 57 57 57 57 55 51 51 49 45 39 47 61 52 57 56 54 53 53 52 49 49 43 41 38 45 40 42 41 47 46 40 41 47 48 54 55 57 58 60 61 63
54 55 55 54 54 55 55 55 55 55 55 56 56 56 57 57 57 57 56 55 57 47 40 45 53 53 53 52 52 52 49 47 44 41 39 38 42 39 42 43 43 47 42 36 35 43 41 43 51 54 52 53 57 59
54 54 54 54 54 54 54 54 55 55 55 55 56 56 57 58 56 54 47 53 58 55 43 40 54 51 53 52 49 48 47 45 43 40 39 41 45 39 34 33 44 45 45 44 40 44 44 45 47 50 50 52 56 58
54 54 54 54 54 54 54 54 54 55 55 55 56 57 57 56 57 53 50 53 57 56 44 42 46 50 51 49 46 45 47 43 42 40 37 37 37 39 34 32 39 41 44 45 48 48 46 49 45 51 53 56 58 60
54 54 54 54 54 54 54 54 55 55 55 55 56 56 54 53 51 55 56 56 57 51 48 40 44 48 51 44 42 45 42 42 41 39 39 36 37 36 31 37 42 44 44 45 48 52 54 54 53 52 53 53 53 55
54 54 53 53 53 53 53 54 54 55 55 56 56 56 57 56 56 55 57 57 57 51 43 42 39 41 50 47 43 42 42 36 42 36 37 36 33 32 37 40 41 44 43 43 48 50 50 53 53 51 51 51 52 54
54 53 53 53 53 53 54 54 55 55 55 56 56 56 53 57 57 57 53 49 49 51 51 39 47 44 49 47 43 40 40 39 35 39 40 36 33 44 47 46 45 46 46 45 44 45 46 46 49 51 49 51 53 55
53 53 53 53 53 53 54 54 55 55 55 57 57 58 56 56 56 51 50 50 51 43 46 45 47 47 52 44 44 47 42 42 37 40 39 36 34 42 48 49 49 48 47 46 47 48 48 47 47 49 53 54 55 55
53 53 53 53 53 53 54 54 55 57 64 58 57 64 59 54 52 53 52 56 54 49 58 54 50 50 51 52 44 47 43 44 38 48 38 33 40 46 48 50 51 49 48 47 48 47 47 48 47 48 49 51 53 53
53 52 52 53 53 53 54 55 55 55 56 65 61 59 58 56 45 43 39 49 52 59 61 60 53 53 51 55 47 48 47 43 52 39 33 39 44 48 49 51 51 53 51 50 49 48 47 47 48 47 47 49 51 51
52 52 52 53 53 54 55 56 56 55 58 58 62 41 54 55 57 56 56 57 61 62 62 62 53 51 53 50 54 47 49 47 38 32 34 41 44 47 50 52 52 51 52 51 49 49 47 46 45 46 47 48 48 47
52 52 52 55 55 55 55 56 56 60 60 63 63 44 57 64 66 64 64 62 63 66 64 61 59 59 55 53 53 50 45 36 38 35 40 44 47 48 50 52 52 52 53 53 51 49 48 47 45 44 46 47 47 47
52 53 62 57 55 55 55 57 58 64 69 68 66 61 64 62 61 63 62 60 66 65 66 63 57 52 50 51 48 44 40 35 41 45 47 48 48 49 50 51 52 53 53 53 54 52 49 48 46 45 46 46 46 46
51 68 55 55 54 55 55 68 70 70 68 66 62 68 65 63 61 62 63 63 66 62 57 57 50 50 55 48 45 47 41 45 49 52 53 51 50 50 51 51 53 53 53 52 53 53 53 52 50 48 44 45 46 46
61 71 58 54 53 62 74 69 72 70 63 66 62 65 65 65 64 64 65 65 62 60 58 55 57 49 46 43 43 48 50 52 53 53 52 53 53 53 54 51 53 53 53 52 52 55 54 53 52 51 51 49 47 47
57 56 53 52 53 57 69 73 72 65 67 67 68 68 67 65 66 67 67 65 64 64 60 56 51 47 47 50 49 51 51 51 51 53 54 53 53 53 54 54 53 53 53 52 51 54 56 54 53 54 53 52 51 52
51 52 53 53 55 66 69 69 74 67 63 67 68 66 66 65 67 66 67 65 62 60 55 53 52 53 53 53 55 53 53 53 53 52 52 53 55 54 54 54 54 55 55 54 53 53 54 54 56 55 53 52 51 51
62 68 60 60 68 64 71 69 66 66 67 66 68 67 64 67 65 65 64 66 60 57 55 57 57 56 58 57 57 56 55 54 52 53 51 51 54 55 55 55 55 57 56 55 54 53 52 52 53 54 54 52 53 53
71 62 72 71 70 73 69 73 68 70 66 67 65 66 62 60 61 63 65 60 57 59 60 58 58 58 56 55 56 56 56 55 54 55 53 54 54 55 55 56 55 54 54 55 55 54 53 53 54 56 54 53 53 53
63 65 70 73 69 55 53 73 66 67 62 62 66 62 62 59 63 66 60 62 61 62 61 61 61 61 58 59 58 57 57 55 55 55 55 56 56 56 57 57 57 54 53 54 57 55 53 51 53 54 54 54 54 52
57 67 63 63 63 52 71 66 68 67 67 64 60 58 61 62 64 59 56 55 61 62 61 61 62 60 56 57 57 56 57 58 57 56 56 55 55 53 56 57 57 57 55 56 56 55 55 54 52 53 53 53 54 52
52 52 55 39 65 65 64 64 65 64 61 62 60 59 61 53 46 45 43 55 58 60 61 62 61 60 58 58 57 56 57 58 56 53 55 55 55 55 55 55 55 55 57 55 54 54 54 55 55 54 53 52 52 53
42 62 50 66 63 63 65 59 60 52 49 48 54 61 58 49 46 47 49 56 60 61 61 61 59 60 58 59 58 58 58 59 57 55 55 57 56 54 52 51 50 51 56 56 54 53 53 54 54 52 52 53 47 52
46 62 67 73 66 51 50 51 56 55 53 50 52 60 57 45 42 47 51 57 62 64 65 65 64 63 60 60 60 60 62 60 58 57 59 59 59 58 55 51 49 50 55 55 54 53 52 53 52 52 52 52 52 52
67 69 64 69 55 53 49 50 51 57 60 59 59 58 53 46 44 55 63 67 67 67 66 67 67 67 64 63 64 63 62 63 61 61 61 59 58 58 57 57 54 46 52 51 52 53 52 52 52 52 51 51 51 53
67 67 69 64 53 51 50 51 56 61 66 65 63 60 55 56 57 64 67 69 70 68 66 65 65 68 67 65 65 64 62 60 56 51 50 50 51 52 56 55 55 54 54 54 45 48 50 50 50 50 52 51 52 53
70 73 67 66 63 57 58 62 64 70 72 70 65 62 62 62 65 71 69 69 67 66 67 67 66 64 62 61 59 57 59 58 55 52 49 49 51 55 54 53 53 54 53 52 50 52 49 51 51 53 51 51 50 50
77 76 70 71 68 68 69 73 72 68 57 53 58 58 56 58 65 70 69 69 70 69 66 64 62 63 61 59 57 55 52 55 55 53 53 55 55 53 53 53 53 53 53 52 51 51 51 50 50 50 49 49 49 49
74 71 70 68 69 72 73 71 72 60 58 55 53 54 53 58 58 63 68 69 67 64 57 61 60 59 62 61 58 55 49 53 52 52 51 51 51 53 53 53 53 53 52 52 51 50 49 49 48 48 48 49 49 49
74 75 75 73 71 71 72 71 70 59 58 56 56 59 59 61 57 63 69 69 66 65 63 63 64 63 62 61 55 53 50 50 45 40 41 40 40 44 51 51 52 52 52 50 50 51 49 49 48 48 48 48 48 48

GFSWCAN_sfc_temp_060.txt.gz
Temp
55 55 56 56 56 56 55 55 56 56 56 56 57 57 57 57 57 53 50 50 45 40 43 46 47 42 43 42 37 39 36 39 38 34 34 33 33 35 34 36 34 34 35 33 34 35 34 50 51 43 49 56 57 57
55 55 55 55 55 55 55 55 55 56 56 56 56 57 57 57 57 55 48 51 50 44 44 49 50 51 48 49 44 43 40 38 37 33 34 36 33 37 37 31 43 33 36 34 34 37 45 50 48 51 56 54 55 55
55 55 55 55 55 55 55 55 56 55 55 56 56 57 57 57 57 55 50 49 47 43 44 45 47 53 55 52 52 41 43 45 42 40 36 37 35 37 31 36 40 44 47 38 38 43 44 46 52 53 54 53 55 55
55 55 55 55 54 55 55 55 55 55 55 56 56 57 57 56 56 54 49 49 48 44 37 45 58 52 56 54 53 51 49 48 44 39 34 32 30 37 34 37 38 40 43 37 39 41 43 48 51 50 49 52 53 55
54 54 55 54 54 55 55 55 55 55 55 56 56 56 57 57 56 54 52 48 48 44 38 41 46 48 48 48 51 51 46 44 40 36 37 34 39 37 37 37 36 39 37 35 34 41 41 42 48 51 49 49 50 52
54 54 54 54 54 54 55 55 55 55 55 55 56 57 57 56 56 52 46 52 50 46 39 35 46 48 49 49 47 45 46 42 42 39 37 39 42 37 34 32 39 43 44 44 41 45 45 48 49 51 49 50 52 52
54 54 54 54 54 54 54 54 54 55 55 55 56 56 56 56 49 45 44 48 52 47 39 36 39 45 49 47 42 42 44 41 40 39 37 37 38 38 34 31 37 42 44 45 46 46 46 52 49 53 52 53 55 55
54 54 54 54 54 54 54 54 55 55 55 55 56 55 54 54 51 47 48 54 51 43 41 39 41 44 49 42 40 41 38 39 40 39 39 37 38 35 32 38 40 43 43 44 46 50 49 50 50 50 54 54 51 51
54 54 54 53 54 54 54 54 54 54 55 56 56 56 51 48 46 46 56 56 52 48 40 40 36 39 46 44 42 42 40 37 41 37 37 37 33 32 38 41 42 43 42 43 47 48 48 47 47 49 50 50 49 50
54 53 53 53 53 53 54 54 54 55 55 55 51 49 46 48 58 55 46 45 46 44 44 37 42 41 44 44 41 40 40 38 36 39 40 35 33 43 45 46 45 46 47 46 43 42 43 43 44 46 48 50 49 50
54 53 53 53 53 53 53 54 54 55 54 49 48 48 47 56 48 49 45 40 41 37 41 41 41 40 47 43 42 43 39 39 34 35 37 33 33 40 45 45 46 47 48 48 47 46 46 45 44 45 47 50 51 52
53 53 52 53 53 53 53 54 54 50 50 52 50 52 48 46 45 42 42 46 43 41 44 42 43 44 46 48 43 44 42 41 36 40 35 32 38 41 44 46 47 47 48 48 48 46 46 46 45 46 46 47 49 50
53 52 52 52 52 53 53 54 54 54 52 52 50 48 47 47 40 39 35 41 41 47 49 47 45 48 45 45 42 41 42 38 44 35 32 34 41 44 44 44 48 49 49 49 48 47 46 45 46 45 45 47 47 48
53 52 52 52 52 53 54 55 55 54 49 49 50 40 45 46 46 45 44 44 48 48 53 50 45 45 45 43 48 44 43 41 35 29 31 35 40 44 43 45 45 46 48 48 48 47 46 45 44 45 46 46 46 45
53 52 52 53 55 55 55 55 55 51 51 49 52 46 52 53 50 51 51 49 51 52 51 48 47 47 43 44 42 41 37 28 35 34 35 39 42 42 43 45 45 46 46 48 47 47 47 46 45 45 45 46 46 45
53 52 56 56 54 54 54 54 52 53 54 55 56 51 51 49 48 49 49 48 51 50 49 48 44 43 40 41 40 36 34 27 34 37 40 43 42 42 43 44 46 47 47 46 48 48 47 46 45 45 46 46 46 45
52 54 56 54 53 54 55 57 57 56 57 59 51 53 52 51 49 49 49 50 51 48 43 44 42 40 44 39 36 34 31 36 38 39 41 44 43 43 44 45 47 47 48 46 48 48 49 48 47 45 43 45 45 46
51 57 57 54 52 53 59 57 59 60 55 54 50 52 52 52 51 50 52 51 50 47 46 44 45 40 37 37 34 37 38 39 40 41 43 44 46 46 47 44 46 46 47 46 46 47 47 47 46 45 44 45 45 46
52 52 52 52 51 49 56 61 60 55 59 54 55 53 53 53 54 54 52 52 52 50 48 45 42 37 37 38 39 39 39 39 39 41 42 44 44 45 47 47 47 46 47 45 45 44 44 46 44 46 47 47 46 47
52 53 53 53 52 54 58 60 60 56 56 57 53 52 52 52 54 53 52 52 50 47 45 43 42 42 41 42 43 42 42 42 41 40 41 43 45 46 45 44 44 44 47 47 44 45 44 46 47 46 46 47 47 46
55 60 56 53 53 54 56 56 56 55 55 52 53 51 50 52 52 51 50 51 48 46 44 46 46 47 46 46 46 45 49 44 42 41 41 42 44 44 46 46 46 45 44 43 43 43 44 42 43 45 45 45 46 46
55 60 58 57 59 62 56 58 56 56 54 55 52 53 50 49 50 48 50 49 48 48 50 50 48 47 46 46 50 52 52 49 46 44 47 45 43 43 43 44 45 44 44 42 44 45 43 43 45 45 46 45 46 45
57 57 58 62 60 50 52 57 56 57 52 53 54 54 48 48 49 52 46 48 49 52 54 52 51 50 49 48 48 51 48 46 44 44 45 43 43 43 45 45 44 45 44 44 43 44 44 45 45 45 46 46 48 44
57 57 56 55 55 48 58 55 59 51 50 50 51 49 46 46 48 41 40 45 49 52 50 54 54 48 48 46 44 44 46 47 46 43 43 43 42 41 44 44 44 44 45 45 46 45 45 46 44 44 45 48 46 44
47 47 49 40 53 55 57 57 55 49 45 46 46 47 46 47 42 40 39 44 52 51 51 48 47 47 45 43 43 44 47 46 43 42 43 43 42 42 42 42 42 43 44 43 43 45 45 46 47 45 44 44 44 45
41 53 49 56 54 51 50 48 49 48 47 46 47 48 46 44 43 42 43 46 47 46 47 47 48 47 45 46 46 43 45 46 46 43 42 44 44 43 40 39 40 42 43 43 44 45 46 46 48 48 46 46 44 45
43 52 56 55 51 50 48 48 49 47 49 47 47 47 46 41 41 44 46 48 48 50 51 52 50 49 48 46 46 47 47 47 47 45 45 49 49 45 44 43 40 40 43 47 46 48 46 45 45 45 45 44 44 45
56 57 55 53 52 50 48 47 48 50 51 50 51 50 47 47 45 49 53 54 51 58 53 54 52 51 49 48 48 48 48 48 50 49 50 50 45 45 45 44 43 44 42 45 47 47 46 45 45 45 45 43 45 44
55 57 59 53 50 48 48 48 49 52 54 51 46 49 49 50 52 52 57 54 58 59 55 50 50 55 54 53 52 50 49 46 44 41 39 37 38 40 43 44 43 43 43 45 45 45 48 45 45 45 46 45 45 46
57 60 57 59 53 52 52 52 53 52 51 50 52 51 53 53 56 55 54 54 54 54 51 50 49 52 48 47 45 45 47 45 41 39 36 36 37 41 42 42 42 42 42 45 46 45 45 48 47 46 45 43 42 41
66 64 59 61 58 58 57 58 57 55 53 51 52 49 48 49 52 55 55 54 57 55 52 48 48 48 48 46 43 41 38 41 41 41 42 41 41 41 41 42 41 42 42 42 44 43 43 43 43 43 44 42 42 41
62 61 59 57 59 61 62 57 53 52 51 50 48 50 50 49 48 51 52 56 54 51 49 48 47 44 47 47 46 45 42 40 39 39 41 40 40 41 41 41 41 43 43 43 42 43 44 44 44 43 41 43 42 42
62 63 63 63 57 57 59 58 53 51 50 49 49 51 51 51 48 50 54 54 55 52 48 48 49 51 48 47 45 43 42 40 40 40 40 40 40 40 38 38 41 43 43 43 42 41 41 41 40 41 40 41 41 41

GFSWCAN_sfc_temp_063.txt.gz
Temp
55 55 55 56 56 55 56 56 56 56 56 56 56 57 57 57 57 52 49 50 46 41 43 46 46 42 42 41 37 42 36 37 36 32 32 32 32 33 32 34 33 33 32 33 33 33 34 45 46 42 43 53 53 51
55 55 55 55 55 55 55 55 55 55 55 56 56 57 57 57 56 55 49 51 50 44 44 49 50 50 47 47 43 43 40 35 39 33 34 34 33 34 33 30 39 32 35 34 33 34 45 48 43 49 49 49 49 50
54 55 55 55 55 55 55 55 55 55 56 56 57 57 57 57 57 54 49 49 48 43 39 40 47 54 53 50 51 41 43 43 39 38 37 36 34 35 31 32 36 40 43 37 36 43 43 45 47 49 49 47 50 53
54 55 55 55 54 55 55 55 55 55 56 56 57 57 57 57 56 53 46 47 47 42 34 40 56 50 52 52 51 50 49 48 41 37 34 35 33 38 35 36 35 37 39 36 38 44 43 48 48 49 49 50 51 53
54 54 54 54 54 54 55 55 55 55 56 56 56 56 57 56 55 53 48 46 45 43 37 37 43 46 46 47 49 48 43 42 40 37 35 34 40 37 38 38 35 38 37 35 34 41 41 43 47 49 48 49 50 50
54 54 54 54 54 54 54 55 55 55 56 55 56 57 57 56 55 51 44 46 47 45 38 38 45 43 44 45 44 43 45 42 41 38 37 39 39 38 34 33 42 41 43 42 40 44 44 46 49 52 51 52 51 50
54 54 54 54 54 54 54 54 55 55 55 55 56 56 56 55 49 46 43 47 50 45 38 40 41 47 46 43 39 39 41 39 39 39 37 37 38 38 34 32 40 42 44 44 46 46 45 48 45 51 51 53 55 52
53 54 54 54 54 54 54 54 55 55 55 55 55 54 54 54 51 46 47 52 49 42 40 34 39 44 49 41 39 38 36 37 39 39 40 37 38 36 33 39 42 44 45 46 46 47 46 48 48 48 51 52 51 51
54 54 54 53 53 54 54 54 55 55 55 55 56 55 50 47 44 46 56 55 49 46 41 39 37 35 45 44 42 40 38 37 39 37 38 37 34 33 37 40 42 44 43 44 46 47 46 45 45 47 48 48 50 50
54 54 53 53 53 53 53 53 54 54 55 55 50 48 46 46 57 54 46 45 45 43 42 37 43 40 43 43 41 41 40 38 35 37 41 35 33 39 41 43 44 45 46 46 42 41 42 43 43 45 45 47 49 48
54 53 53 53 53 53 53 53 54 54 54 47 46 49 46 55 46 48 45 42 42 39 40 40 41 39 44 42 41 43 39 39 35 37 37 34 33 37 42 43 45 44 46 45 46 46 45 44 43 44 45 46 47 49
53 53 53 53 53 52 52 53 54 49 48 50 49 49 46 45 47 40 39 41 40 40 42 41 41 42 46 47 44 43 41 40 34 41 36 26 37 42 42 44 45 43 45 45 45 45 46 46 45 45 45 44 45 47
53 53 53 53 52 52 53 53 53 53 51 50 48 46 46 44 37 38 33 40 39 44 45 44 41 45 44 43 42 41 39 37 38 33 32 34 39 42 41 42 45 45 46 46 45 45 45 45 46 45 45 45 45 45
53 53 53 53 52 53 54 53 54 53 47 48 48 39 43 42 44 44 43 42 46 45 45 43 42 43 42 43 45 41 40 38 31 21 27 35 42 40 41 42 42 43 45 46 46 46 44 43 43 45 45 45 44 43
53 53 53 51 54 54 54 54 54 50 49 48 48 44 46 49 48 48 47 45 48 46 43 44 44 43 40 41 39 38 35 26 32 26 34 37 40 40 40 42 41 42 43 44 45 45 45 44 43 42 45 45 45 44
53 52 54 54 54 54 53 53 51 51 51 50 51 48 47 46 47 47 46 46 47 45 43 44 41 41 39 38 37 34 32 24 31 34 37 39 41 40 40 42 42 43 44 43 44 45 44 44 43 43 45 45 45 45
52 51 55 54 53 52 53 52 53 53 53 53 50 49 48 47 47 47 46 48 46 46 40 41 40 37 40 36 33 31 29 33 36 37 38 39 40 42 42 42 43 44 44 43 43 44 44 45 45 44 42 44 45 45
47 53 55 53 52 51 53 52 56 56 53 55 49 50 48 49 48 48 48 48 47 43 43 42 42 38 34 35 34 36 36 37 37 37 38 40 42 42 43 41 43 44 43 43 42 42 41 42 41 42 43 43 43 44
51 52 53 52 51 48 54 57 56 52 53 54 54 51 50 50 50 50 50 48 47 47 46 43 41 37 37 37 38 37 36 37 38 39 39 40 40 41 43 43 43 43 43 42 40 40 39 39 39 40 42 42 42 44
52 53 53 53 52 52 55 54 55 53 51 53 50 50 48 48 52 49 47 48 47 46 46 43 43 42 41 41 40 42 40 40 39 41 41 41 41 41 41 41 41 40 43 41 41 43 41 42 40 41 42 43 42 41
53 55 54 51 50 51 53 52 53 52 52 50 50 48 47 51 49 48 48 49 47 46 45 46 46 46 45 42 43 48 46 43 40 40 39 39 42 39 40 43 42 41 40 41 41 41 41 39 39 40 42 41 42 43
53 57 55 53 55 55 52 54 55 54 52 50 48 49 46 46 47 47 47 46 45 48 48 47 49 45 43 44 45 45 46 44 42 41 44 42 39 40 39 39 43 41 40 39 41 40 40 39 39 41 42 41 42 42
55 55 55 58 55 48 50 54 54 50 48 48 48 46 44 44 46 46 41 43 45 46 47 48 49 48 48 46 46 45 45 43 41 40 40 39 39 38 39 40 40 42 42 41 40 42 41 41 42 41 42 42 43 42
55 55 53 52 52 48 54 52 51 48 47 45 45 43 42 43 45 42 40 40 44 45 46 49 51 46 43 43 42 42 43 42 41 39 39 40 39 38 38 38 39 39 39 39 40 42 43 41 42 43 42 43 42 41
45 46 48 40 50 51 53 51 48 46 45 45 45 43 43 45 43 42 40 42 44 44 47 46 44 43 42 41 40 41 42 41 41 40 39 39 38 39 42 40 38 41 43 40 40 41 44 45 43 43 43 42 42 41
41 50 47 52 50 50 49 47 47 47 47 48 48 47 47 45 44 43 43 45 45 44 45 44 44 42 41 41 42 41 42 41 41 41 40 40 46 45 39 37 40 39 40 39 42 43 44 44 47 46 43 43 42 43
41 50 51 51 49 49 46 46 47 46 47 47 47 48 46 43 42 44 46 46 46 47 47 47 45 44 43 41 41 40 41 42 43 44 43 46 44 41 40 38 38 39 40 44 46 45 43 44 43 44 45 43 41 43
52 52 52 51 48 47 47 45 46 46 46 47 45 45 45 44 43 45 47 49 48 52 46 47 46 46 44 41 40 42 41 42 44 44 43 41 39 40 40 40 40 41 41 44 44 45 44 43 44 45 45 42 42 42
51 52 54 52 49 47 46 46 47 48 49 47 44 44 45 47 48 48 50 49 52 50 47 46 45 48 46 45 44 41 39 39 39 36 35 33 35 38 39 41 40 39 40 41 42 43 45 44 44 45 45 43 42 42
53 54 53 52 50 50 50 50 49 49 48 49 49 48 48 49 50 48 48 50 47 44 43 44 42 44 39 40 36 38 37 36 35 36 34 34 35 36 38 39 39 38 38 40 41 40 43 45 43 44 43 40 39 39
57 55 55 55 53 52 50 50 51 50 50 49 49 47 46 46 49 49 48 47 48 50 46 42 40 40 40 37 36 35 34 36 37 38 37 36 36 37 37 38 37 38 39 40 40 39 40 41 40 39 39 39 40 39
57 57 56 54 52 52 53 50 49 49 48 48 47 48 48 47 45 46 48 46 47 43 43 43 41 38 38 39 38 38 38 35 36 37 38 37 37 37 37 37 38 40 40 40 39 39 39 38 37 38 37 38 38 38
57 56 56 56 50 49 52 51 49 47 47 46 47 48 48 48 46 47 48 47 49 48 44 42 43 43 42 42 40 38 39 38 38 39 39 39 38 37 36 37 39 40 40 38 38 38 38 39 37 38 37 38 38 38

GFSWCAN_sfc_temp_069.txt.gz
Temp
55 55 55 56 56 55 56 56 56 56 56 57 57 57 58 57 56 54 51 53 48 46 50 49 48 42 43 42 37 46 46 45 41 36 33 33 33 34 32 33 33 33 31 31 34 31 30 43 42 36 40 47 49 51
55 55 55 55 55 55 55 55 55 56 56 57 58 58 57 57 57 55 49 52 52 46 49 53 53 54 51 48 43 45 42 42 41 37 37 35 33 35 34 30 36 32 34 34 35 39 44 45 43 46 46 46 48 50
55 55 55 55 55 55 55 55 55 56 56 57 58 58 58 57 57 55 51 51 50 47 50 51 51 55 56 54 55 42 45 47 44 46 41 38 33 35 31 33 34 36 38 35 35 41 41 44 47 47 47 47 50 52
54 55 55 55 55 55 55 55 55 56 57 57 57 57 57 56 56 54 53 53 52 48 44 51 58 54 57 57 53 53 51 52 48 48 46 43 35 41 36 36 34 35 37 35 36 39 41 45 47 48 48 51 53 55
54 55 55 54 54 55 55 55 55 56 56 56 56 57 57 56 55 55 55 54 55 50 46 52 54 53 54 54 53 52 50 48 49 45 43 40 42 38 41 42 35 38 36 34 34 40 41 43 47 50 47 47 51 51
54 54 54 54 54 54 54 55 55 56 55 56 56 57 56 56 55 55 51 55 56 56 47 46 52 50 50 52 51 49 49 46 46 43 39 39 42 38 36 35 43 42 45 43 40 44 44 46 48 49 47 49 51 51
54 54 54 54 54 54 54 55 55 55 55 55 56 56 56 55 56 55 53 55 53 55 47 46 48 53 49 50 49 49 46 44 46 45 42 41 40 39 37 33 43 43 45 44 45 45 42 45 43 47 47 49 51 55
54 54 54 54 54 54 54 54 55 55 55 55 55 55 55 54 54 54 57 53 53 52 49 41 44 47 51 44 42 43 40 43 45 45 46 42 43 40 34 44 46 45 45 45 44 45 44 46 47 46 47 47 48 48
54 54 54 54 54 54 53 53 54 55 55 55 55 55 56 54 52 54 55 55 53 49 43 41 39 41 49 46 44 41 42 39 45 41 42 43 39 34 42 44 45 45 43 44 48 48 46 44 45 45 45 45 44 45
54 53 53 53 53 53 53 53 53 54 54 55 56 53 50 52 56 56 49 47 46 46 46 39 47 44 48 45 43 42 42 39 36 41 44 37 36 47 49 49 47 48 48 49 45 42 44 42 43 44 44 45 45 45
53 53 53 53 53 53 53 52 53 54 54 55 53 52 53 54 53 49 47 45 45 42 44 45 45 44 50 45 44 46 40 42 36 39 39 38 37 46 51 50 51 49 50 49 49 49 49 47 43 43 43 44 45 45
53 53 53 53 53 53 53 52 53 54 56 55 55 54 54 49 49 46 48 48 45 48 49 47 48 45 47 50 45 45 41 41 34 45 42 34 44 50 50 50 51 50 50 50 50 49 49 49 48 45 44 44 44 45
53 53 53 53 53 53 53 52 53 54 53 56 54 51 50 51 41 46 42 51 50 55 53 52 49 48 47 49 47 44 42 40 48 41 34 43 48 51 50 51 52 53 52 51 50 50 50 49 50 49 47 45 45 45
53 53 53 52 53 51 53 53 53 53 55 53 51 38 49 48 49 53 54 55 59 55 56 53 49 46 48 45 48 44 45 46 39 31 36 47 49 50 51 52 51 51 52 52 52 50 49 48 49 50 49 50 50 46
53 53 53 53 53 54 53 53 53 54 54 53 53 43 51 59 59 59 54 54 57 56 55 53 52 53 50 48 48 46 41 35 38 39 46 50 48 50 51 52 52 52 53 53 53 52 51 50 50 50 51 51 51 51
53 53 55 53 53 53 53 53 54 56 56 54 52 54 58 54 59 54 56 56 57 55 52 55 52 49 46 47 44 40 39 36 43 47 51 49 49 51 51 51 52 52 53 54 54 53 53 52 52 51 52 53 52 52
52 57 53 53 53 53 53 57 56 54 57 55 57 59 58 57 55 55 53 54 53 54 53 52 46 42 49 44 41 44 43 48 51 52 53 49 49 50 51 51 52 53 53 54 54 53 53 53 54 54 51 51 53 53
53 58 54 53 53 53 56 55 58 58 55 60 57 55 55 55 55 54 52 50 54 52 52 42 45 45 44 42 46 50 51 53 53 53 53 51 50 50 51 51 52 53 53 53 53 53 54 53 53 54 53 54 55 55
55 55 53 52 53 55 57 57 58 57 61 62 61 56 56 56 57 56 56 53 54 51 48 43 44 46 48 50 51 50 51 52 53 53 53 51 51 50 52 52 52 52 52 52 53 55 55 52 53 54 55 55 54 55
52 53 54 53 53 58 58 59 60 58 58 60 57 55 54 55 56 56 55 56 54 49 43 44 47 49 49 52 51 55 55 54 55 54 55 55 54 53 52 53 55 54 56 54 55 49 56 56 57 56 56 53 54 54
54 56 53 56 56 58 59 60 60 60 60 58 57 55 53 55 53 51 52 54 50 50 50 51 50 50 52 54 55 55 54 54 55 55 54 55 54 54 54 55 55 56 56 56 57 55 53 55 55 56 56 55 56 56
60 55 60 57 60 58 58 62 60 58 59 56 55 55 52 51 51 49 50 50 52 55 55 55 52 53 55 54 55 55 55 53 53 53 47 50 54 53 52 52 54 53 53 52 53 54 54 55 56 56 57 56 55 57
56 57 61 61 58 51 52 61 58 56 54 54 55 52 51 50 50 53 49 51 53 55 54 55 54 53 53 55 53 54 54 53 56 55 52 52 52 53 53 53 53 52 52 52 53 53 51 45 48 52 54 56 56 56
55 58 57 57 56 51 60 57 58 55 55 54 52 50 50 50 53 52 49 51 54 54 55 55 56 56 57 54 57 57 56 56 54 52 53 53 52 50 51 53 53 54 53 54 54 53 53 52 48 51 53 55 55 54
47 50 51 40 56 56 56 55 55 55 51 51 51 50 51 53 50 49 49 53 53 56 56 55 54 56 55 57 57 56 52 56 56 53 51 55 53 52 51 53 53 52 53 54 50 50 49 51 52 52 52 53 53 53
40 53 48 57 57 56 56 53 53 52 52 50 51 53 53 51 48 47 52 55 56 58 56 57 57 57 58 55 55 56 54 55 55 54 51 55 54 52 51 49 49 50 54 54 53 51 50 49 50 46 52 50 43 53
44 54 58 57 57 56 54 53 55 54 52 50 52 51 50 46 47 52 56 57 56 57 55 56 57 57 56 54 53 52 53 54 53 53 54 54 55 55 54 51 48 51 54 55 55 54 52 51 51 51 51 53 54 54
56 57 56 58 55 56 54 53 53 53 54 54 53 49 49 49 51 57 58 56 55 54 53 53 53 54 53 52 54 54 53 53 53 53 53 53 53 54 54 54 54 40 52 54 54 55 55 53 53 52 51 51 52 54
55 60 59 56 55 54 55 56 57 59 59 55 53 52 54 58 58 59 57 56 56 56 54 52 51 54 53 53 52 52 53 55 51 48 47 47 49 50 53 54 54 55 55 56 42 46 51 54 53 53 52 53 54 54
58 61 59 58 56 57 60 60 60 58 57 58 57 57 57 58 58 57 55 55 55 55 55 55 54 56 54 53 51 50 50 52 54 52 49 47 49 52 53 53 54 54 55 55 55 53 44 51 49 54 53 53 53 53
62 61 59 59 59 60 58 58 58 59 58 57 57 58 56 55 58 57 57 57 56 55 54 53 53 55 55 53 51 50 48 50 51 52 53 53 53 53 53 54 54 55 55 54 54 53 51 51 52 51 51 50 49 49
59 60 60 58 58 57 59 59 57 58 57 55 54 55 53 54 55 56 55 56 55 55 50 54 54 52 52 52 52 51 45 51 51 52 51 53 53 52 54 55 55 55 54 53 53 53 51 50 50 50 49 48 48 49
61 61 60 58 55 53 57 58 56 55 56 54 55 57 56 57 55 57 56 60 60 59 56 57 56 53 52 52 52 50 48 51 45 38 38 38 38 44 53 55 54 54 53 53 52 52 50 49 49 48 48 48 48 48

GFSWCAN_sfc_temp_072.txt.gz
Temp
55 56 56 56 56 55 56 56 56 56 57 58 58 58 58 58 56 61 54 63 59 57 59 58 54 51 51 46 41 52 54 54 49 42 37 40 35 36 33 35 34 34 32 34 36 34 35 52 52 39 43 47 50 52
55 55 55 55 55 55 55 55 56 56 57 58 58 58 58 58 57 58 59 62 63 53 59 63 63 62 58 55 46 54 50 47 48 40 41 37 36 37 35 32 38 34 40 38 41 44 52 50 48 52 50 46 49 49
55 55 55 55 55 55 55 55 56 56 57 58 58 58 58 57 57 58 63 60 58 53 62 63 59 63 66 63 63 50 53 52 46 55 46 42 35 37 33 35 36 37 37 36 40 49 49 46 52 52 51 50 50 53
55 55 55 55 55 55 55 55 55 56 57 57 57 58 57 57 56 57 66 65 63 61 57 59 66 61 65 66 60 60 57 58 57 57 49 42 38 46 37 38 35 37 37 36 38 46 42 46 48 49 50 52 51 53
54 55 55 54 54 55 55 55 55 56 57 56 57 57 57 56 55 61 69 67 68 59 57 62 64 64 63 63 61 62 61 55 52 48 45 40 45 40 43 40 34 38 36 34 34 40 40 42 47 49 48 49 51 50
54 54 54 54 54 55 55 55 55 56 56 56 57 57 57 56 53 64 58 65 68 66 57 58 64 59 55 61 60 59 59 55 57 56 48 45 45 41 38 36 42 43 44 41 38 43 44 45 47 49 46 48 50 50
54 54 54 54 54 54 55 55 55 55 56 56 57 57 56 55 61 57 59 61 59 66 56 56 58 59 59 52 55 55 52 54 56 59 55 46 45 43 41 35 44 45 45 45 45 44 42 45 43 47 47 48 50 52
54 54 54 54 54 54 54 54 54 55 56 56 56 56 55 55 55 59 64 54 59 58 60 45 53 55 60 49 44 45 43 47 55 56 58 54 52 47 36 48 51 50 46 48 48 49 44 45 46 45 47 47 48 49
54 54 54 54 54 54 54 54 54 54 55 55 55 55 62 59 57 57 56 55 58 53 45 45 45 49 58 48 45 43 44 40 57 47 54 53 42 35 45 49 51 51 49 49 52 53 50 44 43 44 44 45 45 46
54 54 54 54 54 54 54 54 54 54 54 55 59 58 52 56 56 56 54 51 49 51 51 42 57 54 57 50 44 43 43 41 40 50 57 45 38 53 55 56 55 55 54 53 50 48 49 46 43 43 42 44 44 45
54 54 54 54 54 54 54 53 53 54 54 63 62 61 61 56 55 52 49 49 50 45 49 53 56 57 61 49 49 50 41 47 39 45 46 44 41 52 57 57 58 58 57 56 55 55 55 53 49 43 43 43 44 45
54 54 53 53 53 53 53 53 53 59 69 61 64 64 62 52 51 52 58 58 54 56 60 59 60 57 58 56 51 49 43 43 39 52 44 36 47 55 56 57 58 59 57 57 58 56 55 55 55 52 46 45 45 45
53 53 53 53 53 53 53 53 53 54 56 66 62 55 54 59 44 51 46 57 54 65 65 62 58 60 50 51 49 48 45 45 56 46 34 47 53 57 57 58 58 60 59 59 58 58 57 56 56 55 52 50 48 46
53 53 53 53 53 51 54 53 53 56 62 62 58 40 54 56 60 59 62 62 65 64 64 64 61 50 49 48 54 46 54 54 46 34 41 54 54 56 58 59 59 58 59 59 58 58 57 57 56 56 55 54 52 48
53 53 53 54 54 54 54 53 52 58 64 61 61 46 60 68 70 70 65 61 54 60 56 60 57 54 52 51 55 52 46 41 44 44 54 57 55 57 57 59 59 59 60 60 61 59 58 58 58 57 57 57 56 53
53 52 60 54 54 54 53 54 55 64 65 63 61 61 68 65 63 67 67 59 55 58 61 61 54 50 49 51 46 45 45 40 51 57 59 60 56 57 57 59 59 60 60 61 61 60 60 58 57 58 59 59 58 57
52 70 54 53 53 53 55 63 64 61 64 61 65 72 68 66 65 65 63 52 57 55 55 51 39 39 49 47 46 54 46 52 57 60 61 57 55 56 57 59 60 61 60 59 60 59 59 60 61 59 56 57 59 59
64 66 55 53 56 54 61 63 66 65 60 68 63 68 67 67 65 65 64 66 60 58 50 43 51 44 46 45 46 51 57 62 62 61 61 58 57 57 59 58 60 60 59 59 59 60 60 59 59 60 59 60 59 59
63 60 54 53 55 62 65 65 66 63 68 72 72 70 68 66 65 66 64 62 62 60 53 50 46 43 44 52 54 54 55 61 59 61 61 58 59 58 58 59 59 60 60 59 59 60 61 59 61 62 61 62 56 60
52 53 54 54 55 65 63 68 70 65 63 68 72 65 65 63 67 66 66 65 64 62 55 50 51 53 57 57 55 60 62 63 62 58 58 61 63 61 59 61 61 60 61 62 61 48 61 58 60 60 62 60 56 57
55 59 54 61 64 65 68 70 68 70 69 66 68 64 61 66 63 62 63 68 64 59 55 60 58 60 61 63 65 65 63 63 61 60 59 59 62 63 64 65 63 62 61 58 57 56 53 60 59 60 58 58 58 57
69 55 69 63 67 67 66 73 68 70 66 65 67 67 62 57 58 60 64 62 59 61 62 62 61 63 63 61 63 62 61 62 61 60 48 53 61 61 61 61 59 57 59 59 60 57 56 59 59 59 57 57 56 59
58 61 68 68 63 58 57 72 64 66 61 63 67 61 61 60 60 66 59 60 62 66 66 65 62 62 60 63 63 62 62 61 63 65 63 63 62 61 58 56 54 55 53 57 58 57 60 47 56 60 58 57 55 56
54 65 62 65 63 57 69 65 70 66 65 64 61 56 58 60 64 62 56 60 65 68 67 63 66 65 66 63 64 64 64 65 65 63 64 61 58 53 54 58 56 57 58 60 57 56 57 55 51 59 57 62 57 56
51 53 56 42 65 62 61 62 63 64 58 59 57 57 60 64 58 56 56 61 66 67 66 66 66 67 63 64 65 63 61 64 63 60 62 63 56 58 58 57 58 60 61 61 60 56 57 58 55 55 58 57 57 56
41 59 51 64 65 63 66 59 60 59 61 58 59 63 64 61 54 52 60 63 66 66 65 63 64 64 64 63 62 61 61 65 64 59 60 64 61 59 56 55 53 54 61 58 57 55 54 54 55 54 57 54 46 56
48 61 66 70 70 68 65 66 67 65 59 58 62 58 59 52 53 60 66 67 68 66 65 66 66 65 63 62 62 63 63 63 61 61 62 62 61 61 59 56 53 56 60 59 59 56 54 55 55 56 58 57 56 58
64 65 62 66 65 68 62 63 61 60 64 66 64 56 57 57 59 67 68 67 66 66 65 65 66 66 64 63 64 63 61 61 61 61 61 61 61 61 60 60 59 43 57 58 57 58 57 56 57 57 56 55 55 56
63 68 68 63 64 64 63 64 68 73 73 69 64 64 64 68 68 68 66 67 68 67 64 63 62 65 64 63 63 64 66 64 58 53 52 54 55 56 61 62 62 62 60 59 38 47 55 55 56 56 57 56 56 58
65 71 66 66 63 65 70 73 73 72 74 73 72 67 67 67 68 69 67 66 66 66 67 66 66 68 64 63 59 58 63 65 65 60 56 54 55 60 60 60 61 62 61 59 57 58 44 52 49 56 54 54 55 56
73 70 67 69 68 72 72 73 72 72 70 68 69 68 69 66 66 66 67 69 69 67 65 63 64 67 65 62 60 57 55 60 59 59 60 60 60 60 60 60 62 62 61 59 57 57 59 55 54 54 54 54 53 53
70 68 69 64 68 69 69 68 68 68 68 64 64 67 64 63 61 63 66 67 67 65 57 63 63 61 62 63 62 61 51 60 59 59 58 60 59 59 61 62 62 62 61 60 61 59 57 55 55 54 54 53 53 52
70 71 70 70 66 62 67 66 64 64 65 64 65 66 65 65 60 64 66 69 68 68 66 66 64 63 60 61 60 57 54 59 47 38 40 39 39 46 60 62 61 61 59 60 59 59 56 54 54 52 52 52 51 51

GFSWCAN_sfc_temp_075.txt.gz
Temp
56 56 56 56 56 56 56 56 56 57 57 58 59 59 59 58 58 63 68 70 65 67 65 65 61 55 53 57 54 60 56 57 53 47 45 44 40 41 34 37 38 38 38 38 40 37 37 59 59 49 54 58 57 57
56 56 56 56 56 55 56 56 56 56 57 58 59 59 59 58 58 59 71 73 70 66 67 70 69 69 65 63 63 60 55 52 52 46 47 46 40 44 39 33 43 37 36 35 42 47 59 60 56 60 61 56 55 56
56 56 56 56 55 55 56 56 56 56 57 58 59 59 58 58 58 58 71 71 69 66 64 66 65 70 74 70 73 53 59 58 57 59 55 48 38 48 37 39 40 43 43 37 42 54 57 54 60 56 54 53 54 57
55 56 56 55 55 55 55 56 56 57 57 58 58 59 58 58 57 57 70 74 70 69 60 62 74 68 73 73 69 69 65 63 64 58 52 44 40 49 41 42 36 39 39 38 38 47 46 52 49 48 49 52 54 56
55 55 55 55 55 55 55 55 56 57 57 57 58 58 58 57 57 61 71 76 75 65 61 62 73 72 73 71 67 68 67 63 63 52 55 50 52 50 49 42 37 38 35 34 34 38 38 40 46 49 48 49 52 54
55 55 55 55 55 55 55 55 55 56 57 57 58 58 58 57 55 63 62 73 77 71 60 56 71 66 67 67 64 62 65 65 59 54 58 60 55 47 41 39 42 44 44 43 38 43 43 44 46 49 47 49 51 52
55 55 55 55 55 55 55 55 55 56 56 57 58 58 57 56 64 57 55 62 60 68 58 61 56 68 65 64 57 51 57 63 60 55 53 60 53 52 46 39 49 45 46 47 49 47 42 43 41 46 46 48 50 51
54 55 55 55 55 55 55 55 55 56 56 56 57 57 56 56 56 60 66 56 60 61 62 50 60 60 64 52 47 47 45 47 56 55 57 55 53 52 38 50 54 51 49 48 49 51 46 45 45 43 45 46 47 47
54 55 55 55 55 55 55 54 54 55 56 56 56 57 62 58 57 62 56 56 66 59 47 48 51 54 66 52 48 45 45 42 53 52 52 57 47 35 47 51 53 54 51 52 54 54 53 45 42 42 42 43 43 44
54 55 54 54 55 54 54 54 54 55 55 56 60 57 53 61 56 58 58 55 54 56 55 46 65 59 65 56 47 46 44 43 41 49 63 49 44 56 56 58 57 57 57 55 50 49 51 48 42 41 40 43 43 44
54 54 54 54 54 54 54 54 55 55 54 65 64 60 62 58 60 55 51 53 52 47 54 56 65 62 70 53 49 55 46 47 41 49 52 47 44 54 59 58 60 60 58 57 56 55 56 54 52 44 44 44 44 44
54 54 54 54 54 54 54 54 54 60 74 64 66 70 63 54 53 54 59 64 58 56 53 55 59 62 67 63 51 49 44 48 40 61 51 37 48 57 58 59 60 61 61 60 59 57 55 55 55 54 48 46 44 44
54 54 53 53 54 54 54 53 52 55 57 72 64 56 54 60 45 54 51 56 48 51 50 48 49 60 61 59 51 49 42 40 58 48 36 48 54 58 58 60 61 62 61 62 60 60 59 57 55 55 53 50 47 46
53 53 53 53 54 54 54 53 53 56 63 65 59 42 58 57 59 52 48 59 65 59 55 50 52 53 48 50 50 44 52 59 48 38 43 50 55 59 58 62 61 59 60 62 62 61 59 58 55 55 56 55 53 49
53 53 53 54 55 55 55 53 53 63 68 65 67 49 61 65 58 63 64 57 61 64 56 56 53 47 50 46 54 55 51 44 46 45 53 56 58 57 57 61 62 61 60 61 62 61 61 60 58 56 57 57 56 55
53 51 62 55 55 55 54 54 56 68 70 67 67 65 68 64 65 64 67 66 69 69 64 63 55 51 53 55 50 49 46 43 46 54 59 60 57 58 58 61 61 62 62 62 61 62 62 61 60 58 58 58 59 57
51 74 55 54 54 54 54 64 69 65 68 66 65 63 56 68 62 57 69 67 71 64 58 59 49 48 59 52 48 53 47 51 57 59 62 59 57 58 60 61 61 61 58 61 62 61 62 63 62 61 58 58 58 58
70 65 54 54 57 55 66 66 71 70 64 65 56 66 71 67 69 68 69 69 68 66 65 54 62 47 42 46 47 53 59 60 62 62 62 62 60 60 62 60 61 62 61 60 59 62 60 62 61 62 62 61 62 60
65 62 55 54 59 65 70 70 72 65 67 63 72 69 67 68 71 72 70 69 69 69 66 60 51 49 49 53 58 62 62 62 62 63 61 61 62 62 61 62 60 59 61 61 62 64 63 62 62 63 62 62 58 63
53 53 53 53 54 69 68 72 77 69 65 69 64 68 66 69 66 71 72 69 68 66 58 57 57 59 56 61 66 65 64 65 64 62 60 61 65 62 60 62 63 63 61 58 59 52 62 65 67 65 64 61 60 60
52 61 56 61 65 70 72 74 69 73 73 64 69 67 66 71 70 68 70 67 68 65 61 66 65 65 64 65 68 67 66 65 62 63 61 61 64 65 63 63 62 59 54 60 58 59 59 61 63 63 63 61 63 59
72 55 73 67 71 72 71 79 74 74 72 72 71 71 65 64 65 68 71 66 64 65 65 66 65 66 65 64 65 65 63 64 63 63 51 56 60 60 59 61 61 59 57 53 55 60 59 61 64 60 57 61 58 63
56 64 73 73 67 62 61 79 68 72 66 67 72 65 67 66 69 73 62 68 68 69 70 67 67 65 65 66 65 63 64 63 60 62 65 64 63 61 60 60 60 57 57 53 58 59 58 51 58 61 61 61 57 57
55 69 67 69 67 59 74 70 76 73 72 68 66 62 63 65 70 68 61 65 68 71 69 66 69 67 67 64 65 66 66 68 67 67 67 65 58 57 62 62 62 62 60 62 60 56 58 59 51 63 60 57 60 59
55 55 59 43 70 67 66 67 67 70 63 65 63 64 65 70 64 63 62 67 69 71 71 70 68 69 67 67 69 67 66 68 66 64 65 66 65 64 63 63 62 62 63 59 60 57 56 57 58 58 62 61 57 58
43 64 52 68 70 67 71 64 65 65 68 64 65 70 71 67 59 57 64 67 69 69 69 69 68 68 68 67 65 65 66 69 67 64 64 67 65 63 60 59 57 58 62 60 60 55 55 56 57 55 59 56 47 54
50 65 71 77 75 75 72 74 74 71 65 64 69 65 66 58 58 64 71 73 72 71 73 73 71 69 68 68 67 67 68 68 65 65 66 65 65 65 63 60 56 59 62 62 60 59 58 56 60 57 57 58 60 58
69 71 66 71 72 76 67 69 67 65 70 74 72 61 61 62 63 71 73 73 73 74 74 74 73 73 70 69 70 68 66 67 66 66 66 65 66 66 64 64 62 46 60 61 60 60 58 59 58 58 57 57 60 59
67 73 73 68 70 71 69 69 69 78 80 78 70 69 70 74 76 73 72 74 75 73 71 70 69 72 70 69 70 72 71 68 62 57 56 59 60 61 68 65 63 62 61 61 40 50 56 57 58 59 59 58 60 60
69 76 70 71 69 66 71 81 77 80 83 80 79 75 75 75 76 77 74 73 72 72 74 73 73 74 72 71 66 66 72 72 71 68 62 60 60 66 67 66 66 65 63 62 60 59 46 55 53 58 58 59 60 60
78 76 72 72 69 73 80 84 83 81 79 77 78 74 75 73 74 74 74 74 75 74 72 70 71 73 72 69 66 64 62 66 65 64 66 66 66 65 65 67 69 67 64 62 64 62 59 62 63 60 58 55 56 55
76 73 71 69 68 76 80 76 77 74 76 72 71 75 74 71 67 70 74 74 73 71 62 69 69 68 71 71 69 67 55 65 64 64 63 66 64 64 66 67 68 67 66 65 65 63 61 60 59 58 57 54 54 54
76 76 76 75 74 70 75 74 72 71 73 71 72 74 73 71 66 71 75 75 74 73 70 73 72 69 66 67 66 64 58 62 49 39 41 40 38 47 60 67 65 65 64 65 65 63 60 57 57 56 55 54 54 54